| time (UTC) | temp F | wind direction | speed knots | gust knots | rain 1hr in | rain 24hr in | rain mn in | humidity % | barometer mb |
| 20260506232341 | 76 | 198 | 0.0 | 1.7 | 0.00 | 0.00 | 0.00 | 56 | 1019.3 |
| 20260506231833 | 77 | 282 | 1.7 | 2.6 | 0.00 | 0.00 | 0.00 | 54 | 1019.3 |
| 20260506231331 | 77 | 203 | 0.0 | 0.9 | 0.00 | 0.00 | 0.00 | 55 | 1019.3 |
| 20260506230828 | 76 | 208 | 0.0 | 2.6 | 0.00 | 0.00 | 0.00 | 57 | 1019.3 |
| 20260506230325 | 75 | 201 | 1.7 | 5.2 | 0.00 | 0.00 | 0.00 | 58 | 1019.4 |
| 20260506225820 | 74 | 62 | 3.5 | 7.0 | 0.00 | 0.00 | 0.00 | 59 | 1019.8 |
| 20260506225318 | 76 | 349 | 2.6 | 7.0 | 0.00 | 0.00 | 0.00 | 56 | 1019.8 |
| 20260506224815 | 78 | 206 | 0.9 | 1.7 | 0.00 | 0.00 | 0.00 | 55 | 1019.5 |
| 20260506224312 | 78 | 224 | 0.0 | 1.7 | 0.00 | 0.00 | 0.00 | 56 | 1019.6 |
| 20260506223809 | 76 | 199 | 0.0 | 2.6 | 0.00 | 0.00 | 0.00 | 57 | 1019.8 |
| 20260506223304 | 76 | 70 | 1.7 | 6.1 | 0.00 | 0.00 | 0.00 | 57 | 1019.6 |
| 20260506222801 | 75 | 235 | 0.0 | 1.7 | 0.00 | 0.00 | 0.00 | 56 | 1019.6 |
| 20260506222256 | 75 | 311 | 2.6 | 4.3 | 0.00 | 0.00 | 0.00 | 57 | 1019.9 |
| 20260506221754 | 77 | 337 | 1.7 | 5.2 | 0.00 | 0.00 | 0.00 | 56 | 1019.8 |
| 20260506221252 | 76 | 83 | 2.6 | 4.3 | 0.00 | 0.00 | 0.00 | 56 | 1020.0 |
| 20260506220749 | 78 | 54 | 4.3 | 7.0 | 0.00 | 0.00 | 0.00 | 56 | 1020.0 |
| 20260506220244 | 77 | 204 | 0.9 | 2.6 | 0.00 | 0.00 | 0.00 | 57 | 1019.8 |
| 20260506215741 | 76 | 268 | 0.9 | 1.7 | 0.00 | 0.00 | 0.00 | 56 | 1020.1 |
| 20260506215236 | 76 | 201 | 2.6 | 2.6 | 0.00 | 0.00 | 0.00 | 56 | 1020.3 |
| 20260506214733 | 75 | 235 | 1.7 | 4.3 | 0.00 | 0.00 | 0.00 | 58 | 1020.3 |
| 20260506214230 | 74 | 67 | 2.6 | 4.3 | 0.00 | 0.00 | 0.00 | 58 | 1020.5 |
| 20260506213728 | 75 | 181 | 0.0 | 0.9 | 0.00 | 0.00 | 0.00 | 59 | 1020.3 |
| 20260506213226 | 73 | 205 | 0.9 | 0.9 | 0.00 | 0.00 | 0.00 | 61 | 1020.4 |
| 20260506212723 | 74 | 126 | 2.6 | 4.3 | 0.00 | 0.00 | 0.00 | 59 | 1020.6 |
| 20260506212218 | 75 | 141 | 0.9 | 4.3 | 0.00 | 0.00 | 0.00 | 59 | 1020.7 |
| 20260506211713 | 74 | 110 | 1.7 | 2.6 | 0.00 | 0.00 | 0.00 | 57 | 1020.7 |
| 20260506211210 | 75 | 97 | 0.9 | 2.6 | 0.00 | 0.00 | 0.00 | 58 | 1020.7 |
| 20260506210707 | 75 | 210 | 0.0 | 0.9 | 0.00 | 0.00 | 0.00 | 57 | 1020.7 |
| 20260506210204 | 73 | 204 | 0.0 | 4.3 | 0.00 | 0.00 | 0.00 | 61 | 1020.7 |
| 20260506205702 | 73 | 269 | 4.3 | 5.2 | 0.00 | 0.00 | 0.00 | 61 | 1020.8 |
| 20260506205201 | 72 | 196 | 0.9 | 4.3 | 0.00 | 0.00 | 0.00 | 62 | 1020.9 |
| 20260506204659 | 72 | 294 | 2.6 | 5.2 | 0.00 | 0.00 | 0.00 | 62 | 1020.9 |
| 20260506204156 | 72 | 197 | 0.9 | 2.6 | 0.00 | 0.00 | 0.00 | 63 | 1020.9 |
| 20260506203654 | 72 | 293 | 2.6 | 2.6 | 0.00 | 0.00 | 0.00 | 62 | 1021.1 |
| 20260506203151 | 72 | 343 | 2.6 | 5.2 | 0.00 | 0.00 | 0.00 | 62 | 1021.1 |
| 20260506202649 | 71 | 321 | 1.7 | 4.3 | 0.00 | 0.00 | 0.00 | 63 | 1021.3 |
| 20260506202145 | 71 | 76 | 2.6 | 4.3 | 0.00 | 0.00 | 0.00 | 63 | 1021.1 |
| 20260506201642 | 71 | 187 | 0.9 | 2.6 | 0.00 | 0.00 | 0.00 | 64 | 1021.2 |
| 20260506201138 | 73 | 243 | 1.7 | 2.6 | 0.00 | 0.00 | 0.00 | 61 | 1021.3 |
| 20260506200635 | 72 | 197 | 0.0 | 1.7 | 0.00 | 0.00 | 0.00 | 62 | 1021.4 |
| 20260506200132 | 71 | 70 | 1.7 | 2.6 | 0.00 | 0.00 | 0.00 | 63 | 1021.6 |
| 20260506195628 | 72 | 202 | 0.9 | 2.6 | 0.00 | 0.00 | 0.00 | 62 | 1021.8 |
| 20260506195125 | 71 | 299 | 0.0 | 1.7 | 0.00 | 0.00 | 0.00 | 62 | 1021.5 |
| 20260506194622 | 71 | 253 | 2.6 | 4.3 | 0.00 | 0.00 | 0.00 | 63 | 1021.7 |
| 20260506194118 | 71 | 255 | 1.7 | 5.2 | 0.00 | 0.00 | 0.00 | 65 | 1021.6 |
| 20260506193616 | 69 | 199 | 0.0 | 5.2 | 0.00 | 0.00 | 0.00 | 67 | 1021.9 |
| 20260506193114 | 71 | 217 | 0.9 | 4.3 | 0.00 | 0.00 | 0.00 | 65 | 1021.7 |
| 20260506192610 | 70 | 199 | 0.0 | 0.9 | 0.00 | 0.00 | 0.00 | 66 | 1021.7 |
| 20260506192106 | 69 | 235 | 0.9 | 2.6 | 0.00 | 0.00 | 0.00 | 67 | 1021.7 |
| 20260506191603 | 68 | 246 | 1.7 | 1.7 | 0.00 | 0.00 | 0.00 | 67 | 1021.8 |
| 20260506191058 | 69 | 241 | 2.6 | 4.3 | 0.00 | 0.00 | 0.00 | 66 | 1021.8 |
| 20260506190556 | 70 | 247 | 1.7 | 2.6 | 0.00 | 0.00 | 0.00 | 66 | 1021.7 |
| 20260506190053 | 70 | 74 | 4.3 | 6.1 | 0.00 | 0.00 | 0.00 | 65 | 1022.0 |
| 20260506185545 | 69 | 200 | 0.0 | 1.7 | 0.00 | 0.00 | 0.00 | 65 | 1021.9 |
| 20260506185042 | 70 | 257 | 2.6 | 2.6 | 0.00 | 0.00 | 0.00 | 64 | 1022.0 |
| 20260506184539 | 68 | 133 | 0.0 | 2.6 | 0.00 | 0.00 | 0.00 | 67 | 1021.9 |
| 20260506184036 | 69 | 61 | 1.7 | 2.6 | 0.00 | 0.00 | 0.00 | 64 | 1021.9 |
| 20260506183531 | 68 | 201 | 0.0 | 0.9 | 0.00 | 0.00 | 0.00 | 68 | 1022.2 |
| 20260506183028 | 67 | 188 | 0.0 | 4.3 | 0.00 | 0.00 | 0.00 | 69 | 1022.0 |
| 20260506182526 | 66 | 214 | 0.0 | 2.6 | 0.00 | 0.00 | 0.00 | 70 | 1022.0 |
| 20260506182022 | 67 | 147 | 0.9 | 1.7 | 0.00 | 0.00 | 0.00 | 68 | 1022.3 |
| 20260506181520 | 65 | 203 | 0.9 | 0.9 | 0.00 | 0.00 | 0.00 | 71 | 1022.2 |
| 20260506181012 | 65 | 123 | 2.6 | 2.6 | 0.00 | 0.00 | 0.00 | 70 | 1022.3 |
| 20260506180508 | 66 | 113 | 0.9 | 2.6 | 0.00 | 0.00 | 0.00 | 71 | 1022.3 |
| 20260506180005 | 65 | 175 | 0.9 | 0.9 | 0.00 | 0.00 | 0.00 | 72 | 1022.1 |
| 20260506175500 | 65 | 247 | 0.9 | 1.7 | 0.00 | 0.00 | 0.00 | 72 | 1022.2 |
| 20260506174952 | 64 | 230 | 0.9 | 4.3 | 0.00 | 0.00 | 0.00 | 74 | 1022.3 |
| 20260506174450 | 64 | 235 | 0.9 | 2.6 | 0.00 | 0.00 | 0.00 | 74 | 1022.3 |
| 20260506173946 | 63 | 241 | 0.0 | 0.0 | 0.00 | 0.00 | 0.00 | 75 | 1022.5 |
| 20260506173444 | 63 | 175 | 0.0 | 0.0 | 0.00 | 0.00 | 0.00 | 76 | 1022.4 |
| 20260506172940 | 63 | 194 | 0.0 | 0.0 | 0.00 | 0.00 | 0.00 | 75 | 1022.6 |
| 20260506172437 | 63 | 205 | 0.0 | 0.0 | 0.00 | 0.00 | 0.00 | 75 | 1022.3 |
| 20260506171934 | 62 | 202 | 0.0 | 0.0 | 0.00 | 0.00 | 0.00 | 77 | 1022.5 |
| 20260506171432 | 62 | 200 | 0.0 | 0.0 | 0.00 | 0.00 | 0.00 | 78 | 1022.6 |
| 20260506170930 | 62 | 191 | 0.0 | 0.0 | 0.00 | 0.00 | 0.00 | 78 | 1022.3 |
| 20260506170425 | 60 | 211 | 0.0 | 0.0 | 0.00 | 0.00 | 0.00 | 80 | 1022.5 |
| 20260506165919 | 60 | 205 | 0.0 | 0.0 | 0.00 | 0.00 | 0.00 | 81 | 1022.5 |
| 20260506165416 | 60 | 213 | 0.0 | 0.0 | 0.00 | 0.00 | 0.00 | 81 | 1022.4 |
| 20260506164907 | 61 | 210 | 0.0 | 0.0 | 0.00 | 0.00 | 0.00 | 82 | 1022.6 |
| 20260506164403 | 60 | 211 | 0.0 | 0.0 | 0.00 | 0.00 | 0.00 | 82 | 1022.7 |
| 20260506163902 | 59 | 216 | 0.0 | 0.0 | 0.00 | 0.00 | 0.00 | 83 | 1022.6 |
| 20260506163401 | 59 | 211 | 0.0 | 0.0 | 0.00 | 0.00 | 0.00 | 83 | 1022.4 |
| 20260506162856 | 59 | 200 | 0.0 | 0.0 | 0.00 | 0.00 | 0.00 | 82 | 1022.4 |
| 20260506162354 | 60 | 206 | 0.0 | 0.0 | 0.00 | 0.00 | 0.00 | 82 | 1022.6 |
| 20260506161846 | 59 | 203 | 0.0 | 0.0 | 0.00 | 0.00 | 0.00 | 83 | 1022.4 |
| 20260506161343 | 59 | 205 | 0.0 | 0.0 | 0.00 | 0.00 | 0.00 | 84 | 1022.7 |
| 20260506160835 | 59 | 208 | 0.0 | 0.0 | 0.00 | 0.00 | 0.00 | 84 | 1022.6 |
| 20260506160331 | 59 | 211 | 0.0 | 0.0 | 0.00 | 0.00 | 0.00 | 85 | 1022.3 |
| 20260506155830 | 59 | 206 | 0.0 | 0.0 | 0.00 | 0.00 | 0.00 | 86 | 1022.4 |
| 20260506155326 | 58 | 205 | 0.0 | 0.0 | 0.00 | 0.00 | 0.00 | 86 | 1022.5 |
| 20260506153439 | 57 | 205 | 0.0 | 0.0 | 0.00 | 0.00 | 0.00 | 91 | 1022.4 |
| 20260506152937 | 57 | 210 | 0.0 | 0.0 | 0.00 | 0.00 | 0.00 | 92 | 1022.3 |
| 20260506152433 | 56 | 211 | 0.0 | 0.0 | 0.00 | 0.00 | 0.00 | 94 | 1022.4 |
| 20260506151932 | 56 | 204 | 0.0 | 0.0 | 0.00 | 0.00 | 0.00 | 95 | 1022.3 |
| 20260506151429 | 56 | 203 | 0.0 | 0.0 | 0.00 | 0.00 | 0.00 | 96 | 1022.3 |
| 20260506150926 | 55 | 209 | 0.0 | 0.0 | 0.00 | 0.00 | 0.00 | 97 | 1022.3 |
| 20260506150422 | 55 | 204 | 0.0 | 0.0 | 0.00 | 0.00 | 0.00 | 97 | 1022.4 |
| 20260506145919 | 55 | 202 | 0.0 | 0.0 | 0.00 | 0.00 | 0.00 | 98 | 1022.4 |
| 20260506145415 | 55 | 200 | 0.0 | 0.0 | 0.00 | 0.00 | 0.00 | 98 | 1022.3 |
| 20260506144913 | 55 | 199 | 0.0 | 0.0 | 0.00 | 0.00 | 0.00 | 98 | 1022.5 |
| 20260506144409 | 55 | 204 | 0.0 | 0.0 | 0.00 | 0.00 | 0.00 | 99 | 1022.3 |
| 20260506143908 | 55 | 203 | 0.0 | 0.0 | 0.00 | 0.00 | 0.00 | 99 | 1022.4 |
| 20260506143404 | 55 | 203 | 0.0 | 0.0 | 0.00 | 0.00 | 0.00 | 99 | 1022.2 |
| 20260506142903 | 54 | 203 | 0.0 | 0.0 | 0.00 | 0.00 | 0.00 | 99 | 1022.3 |
| 20260506142401 | 54 | 203 | 0.0 | 0.0 | 0.00 | 0.00 | 0.00 | 99 | 1022.2 |
| 20260506141858 | 54 | 203 | 0.0 | 0.0 | 0.00 | 0.00 | 0.00 | 99 | 1022.2 |
| 20260506141356 | 53 | 203 | 0.0 | 0.0 | 0.00 | 0.00 | 0.00 | 99 | 1022.1 |
| 20260506140854 | 53 | 203 | 0.0 | 0.0 | 0.00 | 0.00 | 0.00 | 99 | 1022.3 |
| 20260506140351 | 53 | 203 | 0.0 | 0.0 | 0.00 | 0.00 | 0.00 | 99 | 1022.1 |
| 20260506135848 | 53 | 203 | 0.0 | 0.0 | 0.00 | 0.00 | 0.00 | 98 | 1022.0 |
| 20260506135345 | 52 | 203 | 0.0 | 0.0 | 0.00 | 0.00 | 0.00 | 98 | 1021.9 |
| 20260506134841 | 52 | 203 | 0.0 | 0.0 | 0.00 | 0.00 | 0.00 | 98 | 1021.8 |
| 20260506134337 | 52 | 202 | 0.0 | 0.0 | 0.00 | 0.00 | 0.00 | 98 | 1021.8 |
| 20260506133834 | 51 | 203 | 0.0 | 0.0 | 0.00 | 0.00 | 0.00 | 98 | 1021.7 |
| 20260506133331 | 51 | 203 | 0.0 | 0.0 | 0.00 | 0.00 | 0.00 | 98 | 1021.8 |
| 20260506132828 | 51 | 203 | 0.0 | 0.0 | 0.00 | 0.00 | 0.00 | 98 | 1021.6 |
| 20260506132325 | 51 | 202 | 0.0 | 0.0 | 0.00 | 0.00 | 0.00 | 98 | 1021.4 |
| 20260506131823 | 51 | 202 | 0.0 | 0.0 | 0.00 | 0.00 | 0.00 | 98 | 1021.6 |
| 20260506131319 | 51 | 202 | 0.0 | 0.0 | 0.00 | 0.00 | 0.00 | 98 | 1021.4 |
| 20260506130816 | 51 | 202 | 0.0 | 0.0 | 0.00 | 0.00 | 0.00 | 98 | 1021.5 |
| 20260506130313 | 50 | 202 | 0.0 | 0.0 | 0.00 | 0.00 | 0.00 | 97 | 1021.4 |
| 20260506125811 | 50 | 202 | 0.0 | 0.0 | 0.00 | 0.00 | 0.00 | 97 | 1021.7 |
| 20260506125309 | 50 | 202 | 0.0 | 0.0 | 0.00 | 0.00 | 0.00 | 97 | 1021.3 |
| 20260506124807 | 51 | 202 | 0.0 | 0.0 | 0.00 | 0.00 | 0.00 | 97 | 1021.4 |
| 20260506124303 | 50 | 202 | 0.0 | 0.0 | 0.00 | 0.00 | 0.00 | 97 | 1021.4 |
| 20260506123801 | 50 | 202 | 0.0 | 0.0 | 0.00 | 0.00 | 0.00 | 97 | 1021.3 |
| 20260506123300 | 50 | 201 | 0.0 | 0.0 | 0.00 | 0.00 | 0.00 | 97 | 1021.3 |
| 20260506122756 | 50 | 201 | 0.0 | 0.0 | 0.00 | 0.00 | 0.00 | 97 | 1021.2 |
| 20260506122253 | 51 | 201 | 0.0 | 0.0 | 0.00 | 0.00 | 0.00 | 97 | 1021.3 |
| 20260506121751 | 50 | 201 | 0.0 | 0.0 | 0.00 | 0.00 | 0.00 | 97 | 1021.2 |
| 20260506121247 | 51 | 200 | 0.0 | 0.0 | 0.00 | 0.00 | 0.00 | 96 | 1021.0 |
| 20260506120744 | 51 | 201 | 0.0 | 0.0 | 0.00 | 0.00 | 0.00 | 96 | 1021.1 |
| 20260506120242 | 51 | 201 | 0.0 | 0.0 | 0.00 | 0.00 | 0.00 | 96 | 1021.0 |
| 20260506115735 | 51 | 200 | 0.0 | 0.0 | 0.00 | 0.00 | 0.00 | 96 | 1021.3 |
| 20260506115233 | 51 | 200 | 0.0 | 0.0 | 0.00 | 0.00 | 0.00 | 96 | 1021.1 |
| 20260506114730 | 51 | 200 | 0.0 | 0.0 | 0.00 | 0.00 | 0.00 | 96 | 1021.0 |
| 20260506114227 | 51 | 200 | 0.0 | 0.0 | 0.00 | 0.00 | 0.00 | 95 | 1020.9 |
| 20260506113726 | 51 | 200 | 0.0 | 0.0 | 0.00 | 0.00 | 0.00 | 95 | 1020.7 |
| 20260506113223 | 51 | 200 | 0.0 | 0.0 | 0.00 | 0.00 | 0.00 | 95 | 1021.0 |
| 20260506112719 | 51 | 200 | 0.0 | 0.0 | 0.00 | 0.00 | 0.00 | 95 | 1021.0 |
| 20260506112217 | 51 | 200 | 0.0 | 0.0 | 0.00 | 0.00 | 0.00 | 94 | 1021.1 |
| 20260506111714 | 51 | 200 | 0.0 | 0.0 | 0.00 | 0.00 | 0.00 | 94 | 1021.0 |
| 20260506111213 | 51 | 200 | 0.0 | 0.0 | 0.00 | 0.00 | 0.00 | 94 | 1021.2 |
| 20260506110709 | 51 | 190 | 0.0 | 0.0 | 0.00 | 0.00 | 0.00 | 93 | 1020.9 |
| 20260506110207 | 52 | 190 | 0.0 | 0.0 | 0.00 | 0.00 | 0.00 | 93 | 1020.8 |
| 20260506105703 | 52 | 190 | 0.0 | 0.0 | 0.00 | 0.00 | 0.00 | 93 | 1020.9 |
| 20260506105200 | 52 | 190 | 0.0 | 0.0 | 0.00 | 0.00 | 0.00 | 92 | 1020.7 |
| 20260506104658 | 52 | 190 | 0.0 | 0.0 | 0.00 | 0.00 | 0.00 | 92 | 1020.8 |
| 20260506104155 | 53 | 190 | 0.0 | 0.0 | 0.00 | 0.00 | 0.00 | 92 | 1020.7 |
| 20260506103652 | 53 | 190 | 0.0 | 0.0 | 0.00 | 0.00 | 0.00 | 91 | 1020.8 |
| 20260506103149 | 53 | 190 | 0.0 | 0.0 | 0.00 | 0.00 | 0.00 | 91 | 1020.7 |
| 20260506102647 | 53 | 190 | 0.0 | 0.0 | 0.00 | 0.00 | 0.00 | 91 | 1020.6 |
| 20260506102144 | 54 | 190 | 0.0 | 0.0 | 0.00 | 0.00 | 0.00 | 91 | 1020.6 |
| 20260506101641 | 54 | 190 | 0.0 | 0.0 | 0.00 | 0.00 | 0.00 | 90 | 1020.5 |
| 20260506101138 | 55 | 190 | 0.0 | 0.0 | 0.00 | 0.00 | 0.00 | 90 | 1020.8 |
| 20260506100637 | 55 | 190 | 0.0 | 0.0 | 0.00 | 0.00 | 0.00 | 89 | 1020.6 |
| 20260506100134 | 55 | 190 | 0.0 | 0.0 | 0.00 | 0.00 | 0.00 | 89 | 1020.6 |
| 20260506095632 | 55 | 190 | 0.0 | 0.0 | 0.00 | 0.00 | 0.00 | 89 | 1020.5 |
| 20260506095129 | 56 | 190 | 0.0 | 0.0 | 0.00 | 0.00 | 0.00 | 89 | 1020.6 |
| 20260506094626 | 56 | 190 | 0.0 | 0.0 | 0.00 | 0.00 | 0.00 | 89 | 1020.5 |
| 20260506094124 | 56 | 190 | 0.0 | 0.0 | 0.00 | 0.00 | 0.00 | 89 | 1020.8 |
| 20260506093622 | 57 | 190 | 0.0 | 0.0 | 0.00 | 0.00 | 0.00 | 89 | 1020.6 |
| 20260506093119 | 57 | 190 | 0.0 | 0.0 | 0.00 | 0.00 | 0.00 | 89 | 1020.5 |
| 20260506092616 | 57 | 201 | 0.0 | 0.0 | 0.00 | 0.00 | 0.00 | 89 | 1020.6 |
| 20260506092113 | 57 | 201 | 0.0 | 0.0 | 0.00 | 0.00 | 0.00 | 89 | 1020.9 |
| 20260506091611 | 57 | 202 | 0.0 | 0.0 | 0.00 | 0.00 | 0.00 | 89 | 1020.6 |
| 20260506091108 | 57 | 200 | 0.0 | 0.0 | 0.00 | 0.00 | 0.00 | 88 | 1020.5 |
| 20260506090607 | 57 | 203 | 0.0 | 0.0 | 0.00 | 0.00 | 0.00 | 88 | 1020.4 |
| 20260506085559 | 57 | 201 | 0.0 | 0.0 | 0.00 | 0.00 | 0.00 | 88 | 1020.5 |
| 20260506085055 | 57 | 190 | 0.0 | 0.0 | 0.00 | 0.00 | 0.00 | 88 | 1020.3 |
| 20260506084553 | 57 | 190 | 0.0 | 0.0 | 0.00 | 0.00 | 0.00 | 88 | 1020.4 |
| 20260506084049 | 57 | 192 | 0.0 | 0.0 | 0.00 | 0.00 | 0.00 | 88 | 1020.7 |
| 20260506083546 | 57 | 198 | 0.0 | 0.0 | 0.00 | 0.00 | 0.00 | 88 | 1020.6 |
| 20260506083043 | 57 | 198 | 0.0 | 0.0 | 0.00 | 0.00 | 0.00 | 88 | 1020.6 |
| 20260506082540 | 57 | 199 | 0.0 | 0.0 | 0.00 | 0.00 | 0.00 | 87 | 1020.5 |
| 20260506082036 | 57 | 200 | 0.0 | 0.0 | 0.00 | 0.00 | 0.00 | 87 | 1020.5 |
| 20260506081534 | 57 | 195 | 0.0 | 0.0 | 0.00 | 0.00 | 0.00 | 87 | 1020.7 |
| 20260506081031 | 57 | 195 | 0.0 | 0.0 | 0.00 | 0.00 | 0.00 | 87 | 1020.7 |
| 20260506080529 | 57 | 199 | 0.0 | 0.0 | 0.00 | 0.00 | 0.00 | 87 | 1020.6 |
| 20260506073512 | 57 | 199 | 0.0 | 0.0 | 0.00 | 0.00 | 0.00 | 87 | 1020.5 |
| 20260506073010 | 57 | 199 | 0.0 | 0.0 | 0.00 | 0.00 | 0.00 | 86 | 1020.3 |
| 20260506072507 | 57 | 189 | 0.0 | 0.0 | 0.00 | 0.00 | 0.00 | 86 | 1020.4 |
| 20260506072004 | 57 | 196 | 0.0 | 0.0 | 0.00 | 0.00 | 0.00 | 86 | 1020.3 |
| 20260506071502 | 57 | 195 | 0.0 | 0.0 | 0.00 | 0.00 | 0.00 | 86 | 1020.5 |
| 20260506070959 | 57 | 203 | 0.0 | 0.0 | 0.00 | 0.00 | 0.00 | 86 | 1020.3 |
| 20260506070456 | 57 | 195 | 0.0 | 0.0 | 0.00 | 0.00 | 0.00 | 86 | 1020.2 |
| 20260506062434 | 57 | 194 | 0.0 | 0.0 | 0.00 | 0.00 | 0.00 | 85 | 1019.9 |
| 20260506061929 | 58 | 201 | 0.0 | 0.0 | 0.00 | 0.00 | 0.00 | 85 | 1020.1 |
| 20260506061426 | 57 | 197 | 0.0 | 0.0 | 0.00 | 0.00 | 0.00 | 84 | 1020.0 |
| 20260506060924 | 57 | 201 | 0.0 | 0.0 | 0.00 | 0.00 | 0.00 | 84 | 1020.0 |
| 20260506060422 | 57 | 197 | 0.0 | 0.0 | 0.00 | 0.00 | 0.00 | 83 | 1019.8 |
| 20260506051354 | 58 | 199 | 0.0 | 0.0 | 0.00 | 0.00 | 0.00 | 82 | 1019.7 |
| 20260506050851 | 58 | 199 | 0.0 | 0.0 | 0.00 | 0.00 | 0.00 | 82 | 1019.5 |
| 20260506050348 | 58 | 199 | 0.0 | 0.0 | 0.00 | 0.00 | 0.00 | 82 | 1019.5 |
| 20260506044839 | 58 | 199 | 0.0 | 0.0 | 0.00 | 0.00 | 0.00 | 81 | 1019.3 |
| 20260506044337 | 59 | 199 | 0.0 | 0.0 | 0.00 | 0.00 | 0.00 | 81 | 1019.2 |
| 20260506043833 | 59 | 201 | 0.0 | 0.0 | 0.00 | 0.00 | 0.00 | 81 | 1019.1 |
| 20260506043331 | 59 | 201 | 0.0 | 0.0 | 0.00 | 0.00 | 0.00 | 81 | 1019.2 |
| 20260506042830 | 59 | 201 | 0.0 | 0.0 | 0.00 | 0.00 | 0.00 | 81 | 1019.0 |
| 20260506042328 | 59 | 202 | 0.0 | 0.0 | 0.00 | 0.00 | 0.00 | 81 | 1019.1 |
| 20260506041826 | 59 | 213 | 0.0 | 0.0 | 0.00 | 0.00 | 0.00 | 81 | 1019.3 |
| 20260506041323 | 59 | 199 | 0.0 | 0.0 | 0.00 | 0.00 | 0.00 | 81 | 1019.1 |
| 20260506040820 | 59 | 199 | 0.0 | 0.0 | 0.00 | 0.00 | 0.00 | 81 | 1018.9 |
| 20260506040317 | 59 | 203 | 0.0 | 0.0 | 0.00 | 0.00 | 0.00 | 81 | 1018.8 |
| 20260506035813 | 59 | 209 | 0.9 | 0.9 | 0.00 | 0.00 | 0.00 | 81 | 1018.7 |
| 20260506035311 | 59 | 217 | 0.0 | 0.0 | 0.00 | 0.00 | 0.00 | 81 | 1018.5 |
| 20260506034808 | 59 | 218 | 0.0 | 0.9 | 0.00 | 0.00 | 0.00 | 81 | 1018.6 |
| 20260506034305 | 59 | 222 | 0.0 | 0.9 | 0.00 | 0.00 | 0.00 | 80 | 1018.6 |
| 20260506033802 | 59 | 213 | 0.0 | 0.0 | 0.00 | 0.00 | 0.00 | 80 | 1018.6 |
| 20260506033259 | 59 | 249 | 0.9 | 0.9 | 0.00 | 0.00 | 0.00 | 80 | 1018.2 |
| 20260506032756 | 59 | 218 | 0.9 | 2.6 | 0.00 | 0.00 | 0.00 | 80 | 1018.4 |
| 20260506032253 | 60 | 298 | 0.9 | 1.7 | 0.00 | 0.00 | 0.00 | 80 | 1018.3 |
| 20260506031749 | 60 | 208 | 0.0 | 0.0 | 0.00 | 0.00 | 0.00 | 80 | 1018.0 |
| 20260506031247 | 60 | 208 | 0.0 | 0.9 | 0.00 | 0.00 | 0.00 | 79 | 1018.1 |
| 20260506030745 | 60 | 207 | 0.0 | 0.0 | 0.00 | 0.00 | 0.00 | 79 | 1018.0 |
| 20260506030242 | 60 | 204 | 0.0 | 0.0 | 0.00 | 0.00 | 0.00 | 78 | 1018.0 |
| 20260506025739 | 60 | 189 | 0.0 | 0.9 | 0.00 | 0.00 | 0.00 | 78 | 1018.2 |
| 20260506025235 | 60 | 195 | 0.0 | 0.0 | 0.00 | 0.00 | 0.00 | 77 | 1017.9 |
| 20260506024732 | 61 | 195 | 0.0 | 0.9 | 0.00 | 0.00 | 0.00 | 77 | 1017.9 |
| 20260506024228 | 61 | 203 | 0.0 | 0.9 | 0.00 | 0.00 | 0.00 | 76 | 1017.8 |
| 20260506023720 | 61 | 205 | 0.0 | 2.6 | 0.00 | 0.00 | 0.00 | 76 | 1017.7 |
| 20260506023217 | 61 | 213 | 0.9 | 0.9 | 0.00 | 0.00 | 0.00 | 76 | 1017.7 |
| 20260506022714 | 61 | 213 | 0.0 | 1.7 | 0.00 | 0.00 | 0.00 | 76 | 1017.8 |
| 20260506022212 | 61 | 239 | 0.9 | 0.9 | 0.00 | 0.00 | 0.00 | 76 | 1017.6 |
| 20260506021709 | 61 | 197 | 0.0 | 0.9 | 0.00 | 0.00 | 0.00 | 75 | 1017.7 |
| 20260506021206 | 61 | 204 | 0.0 | 0.9 | 0.00 | 0.00 | 0.00 | 75 | 1017.7 |
| 20260506020703 | 61 | 207 | 0.0 | 2.6 | 0.00 | 0.00 | 0.00 | 75 | 1017.4 |
| 20260506020201 | 62 | 203 | 0.0 | 0.9 | 0.00 | 0.00 | 0.00 | 75 | 1017.4 |
| 20260506015658 | 62 | 184 | 0.0 | 1.7 | 0.00 | 0.00 | 0.00 | 75 | 1017.7 |
| 20260506015155 | 62 | 207 | 0.0 | 0.9 | 0.00 | 0.00 | 0.00 | 75 | 1017.7 |
| 20260506014647 | 61 | 191 | 0.0 | 0.9 | 0.00 | 0.00 | 0.00 | 75 | 1017.5 |
| 20260506014142 | 62 | 195 | 0.0 | 0.9 | 0.00 | 0.00 | 0.00 | 75 | 1017.5 |
| 20260506013641 | 62 | 211 | 0.0 | 0.9 | 0.00 | 0.00 | 0.00 | 75 | 1017.8 |
| 20260506013137 | 61 | 198 | 0.0 | 0.9 | 0.00 | 0.00 | 0.00 | 75 | 1017.7 |
| 20260506012633 | 61 | 209 | 0.9 | 0.9 | 0.00 | 0.00 | 0.00 | 75 | 1017.5 |
| 20260506012129 | 62 | 222 | 0.0 | 2.6 | 0.00 | 0.00 | 0.00 | 75 | 1017.6 |
| 20260506011627 | 62 | 206 | 0.0 | 0.9 | 0.00 | 0.00 | 0.00 | 75 | 1017.5 |
| 20260506011123 | 62 | 207 | 0.0 | 1.7 | 0.00 | 0.00 | 0.00 | 74 | 1017.5 |
| 20260506010622 | 62 | 202 | 0.0 | 0.9 | 0.00 | 0.00 | 0.00 | 75 | 1017.6 |
| 20260506010119 | 62 | 195 | 0.9 | 1.7 | 0.00 | 0.00 | 0.00 | 75 | 1017.6 |
| 20260506005616 | 62 | 199 | 1.7 | 2.6 | 0.00 | 0.00 | 0.00 | 74 | 1017.6 |
| 20260506005112 | 62 | 197 | 0.9 | 1.7 | 0.00 | 0.00 | 0.00 | 74 | 1017.6 |
| 20260506004609 | 62 | 200 | 1.7 | 4.3 | 0.00 | 0.00 | 0.00 | 74 | 1017.3 |
| 20260506004106 | 62 | 216 | 0.9 | 2.6 | 0.00 | 0.00 | 0.00 | 73 | 1017.3 |
| 20260506003602 | 62 | 203 | 0.0 | 0.9 | 0.00 | 0.00 | 0.00 | 74 | 1017.5 |
| 20260506003058 | 62 | 208 | 0.0 | 1.7 | 0.00 | 0.00 | 0.00 | 73 | 1017.5 |
| 20260506002554 | 62 | 238 | 1.7 | 4.3 | 0.00 | 0.00 | 0.00 | 74 | 1017.4 |
| 20260506002050 | 62 | 205 | 0.9 | 2.6 | 0.00 | 0.00 | 0.00 | 74 | 1017.2 |
| 20260506001546 | 62 | 210 | 0.0 | 5.2 | 0.00 | 0.00 | 0.00 | 74 | 1017.2 |
| 20260506001044 | 62 | 208 | 0.9 | 4.3 | 0.00 | 0.00 | 0.00 | 73 | 1017.2 |
| 20260506000542 | 62 | 254 | 0.9 | 4.3 | 0.00 | 0.00 | 0.00 | 74 | 1017.1 |
| 20260506000039 | 62 | 208 | 0.9 | 2.6 | 0.00 | 0.00 | 0.00 | 73 | 1017.0 |
| 20260505235537 | 62 | 194 | 0.9 | 1.7 | 0.00 | 0.00 | 0.00 | 73 | 1017.3 |
| 20260505235033 | 62 | 236 | 1.7 | 2.6 | 0.00 | 0.00 | 0.00 | 73 | 1017.1 |
| 20260505234530 | 62 | 203 | 0.0 | 0.9 | 0.00 | 0.00 | 0.00 | 73 | 1017.3 |
| 20260505234027 | 62 | 262 | 0.9 | 6.1 | 0.00 | 0.00 | 0.00 | 73 | 1017.0 |
| 20260505233525 | 63 | 201 | 0.9 | 6.1 | 0.00 | 0.00 | 0.00 | 72 | 1017.1 |
| 20260505233022 | 63 | 246 | 0.9 | 5.2 | 0.00 | 0.00 | 0.00 | 72 | 1017.2 |